EYESAT A (AO-27)

Last updated on Wed Sep 17 2025 00:03:09 GMT+0000 (Coordinated Universal Time)

1 22825U 93061C 25258.74927844 .00000078 00000+0 46998-4 0 9999 2 22825 98.7273 320.7514 0008443 177.8928 182.2291 14.30828757667751
UTC large
Height (km)
Speed (km/s)
/
Latitude / Longitude
Inclination (degrees)
Orbital Period (minutes)
Azimuth
Elevation
Range (km)
Doppler Factor

Next 0 passes for location: London (51.5072 / 0.1276)

Sorry there are no passes over London.